Time,TemperatureF,DewpointF,PressureIn,WindDirection,WindDirectionDegrees,WindSpeedMPH,WindSpeedGustMPH,Humidity,HourlyPrecipIn,Conditions,Clouds,dailyrainin,SoftwareType,DateUTC
2013-04-30 00:00:00,51.0,47.0,-100.00,SE,136,5.0,11.0,86,-99.99,,,-99.99,,2013-04-30 04:00:00,
2013-04-30 00:32:00,51.0,47.0,-100.00,SE,136,5.0,11.0,86,-99.99,,,-99.99,,2013-04-30 04:32:00,
2013-04-30 00:42:00,51.0,47.0,-100.00,SE,136,5.0,11.0,86,-99.99,,,-99.99,,2013-04-30 04:42:00,
2013-04-30 00:52:00,51.0,47.0,-100.00,SE,136,5.0,11.0,86,-99.99,,,-99.99,,2013-04-30 04:52:00,
2013-04-30 01:00:00,51.0,48.0,-100.00,SE,134,1.0,11.0,88,-99.99,,,-99.99,,2013-04-30 05:00:00,
2013-04-30 01:31:00,51.0,48.0,-100.00,SE,134,1.0,11.0,88,-99.99,,,-99.99,,2013-04-30 05:31:00,
2013-04-30 01:42:00,51.0,48.0,-100.00,SE,134,1.0,11.0,88,-99.99,,,-99.99,,2013-04-30 05:42:00,
2013-04-30 01:51:00,51.0,48.0,-100.00,SE,134,1.0,11.0,88,-99.99,,,-99.99,,2013-04-30 05:51:00,
2013-04-30 02:00:00,51.0,48.0,-100.00,ESE,113,4.0,9.0,90,-99.99,,,-99.99,,2013-04-30 06:00:00,
2013-04-30 02:21:00,51.0,48.0,-100.00,ESE,113,4.0,9.0,90,-99.99,,,-99.99,,2013-04-30 06:21:00,
2013-04-30 02:32:00,51.0,48.0,-100.00,ESE,113,4.0,9.0,90,-99.99,,,-99.99,,2013-04-30 06:32:00,
2013-04-30 02:42:00,51.0,48.0,-100.00,ESE,113,4.0,9.0,90,-99.99,,,-99.99,,2013-04-30 06:42:00,
2013-04-30 02:52:00,51.0,48.0,-100.00,ESE,113,4.0,9.0,90,-99.99,,,-99.99,,2013-04-30 06:52:00,
2013-04-30 03:00:00,51.0,48.0,-100.00,NE,48,2.0,6.0,89,-99.99,,,-99.99,,2013-04-30 07:00:00,
2013-04-30 03:21:00,51.0,48.0,-100.00,NE,48,2.0,6.0,89,-99.99,,,-99.99,,2013-04-30 07:21:00,
2013-04-30 03:32:00,51.0,48.0,-100.00,NE,48,2.0,6.0,89,-99.99,,,-99.99,,2013-04-30 07:32:00,
2013-04-30 03:42:00,51.0,48.0,-100.00,NE,48,2.0,6.0,89,-99.99,,,-99.99,,2013-04-30 07:42:00,
2013-04-30 03:52:00,51.0,48.0,-100.00,NE,48,2.0,6.0,89,-99.99,,,-99.99,,2013-04-30 07:52:00,
2013-04-30 04:00:00,51.0,47.0,-100.00,NNE,31,1.0,5.0,86,-99.99,,,-99.99,,2013-04-30 08:00:00,
2013-04-30 04:22:00,51.0,47.0,-100.00,NNE,31,1.0,5.0,86,-99.99,,,-99.99,,2013-04-30 08:22:00,
2013-04-30 04:32:00,51.0,47.0,-100.00,NNE,31,1.0,5.0,86,-99.99,,,-99.99,,2013-04-30 08:32:00,
2013-04-30 04:42:00,51.0,47.0,-100.00,NNE,31,1.0,5.0,86,-99.99,,,-99.99,,2013-04-30 08:42:00,
2013-04-30 04:52:00,51.0,47.0,-100.00,NNE,31,1.0,5.0,86,-99.99,,,-99.99,,2013-04-30 08:52:00,
2013-04-30 05:00:00,51.0,46.0,-100.00,NE,37,2.0,7.0,84,-99.99,,,-99.99,,2013-04-30 09:00:00,
2013-04-30 05:22:00,51.0,46.0,-100.00,NE,37,2.0,7.0,84,-99.99,,,-99.99,,2013-04-30 09:22:00,
2013-04-30 05:33:00,51.0,46.0,-100.00,NE,37,2.0,7.0,84,-99.99,,,-99.99,,2013-04-30 09:33:00,
2013-04-30 05:43:00,51.0,46.0,-100.00,NE,37,2.0,7.0,84,-99.99,,,-99.99,,2013-04-30 09:43:00,
2013-04-30 05:52:00,51.0,46.0,-100.00,NE,37,2.0,7.0,84,-99.99,,,-99.99,,2013-04-30 09:52:00,
2013-04-30 06:00:00,51.0,46.0,-100.00,NE,42,4.0,11.0,82,-99.99,,,-99.99,,2013-04-30 10:00:00,
2013-04-30 06:22:00,51.0,46.0,-100.00,NE,42,4.0,11.0,82,-99.99,,,-99.99,,2013-04-30 10:22:00,
2013-04-30 06:32:00,51.0,46.0,-100.00,NE,42,4.0,11.0,82,-99.99,,,-99.99,,2013-04-30 10:32:00,
2013-04-30 06:41:00,51.0,46.0,-100.00,NE,42,4.0,11.0,82,-99.99,,,-99.99,,2013-04-30 10:41:00,
2013-04-30 06:52:00,51.0,46.0,-100.00,NE,42,4.0,11.0,82,-99.99,,,-99.99,,2013-04-30 10:52:00,
2013-04-30 07:00:00,51.0,45.0,-100.00,ENE,67,5.0,10.0,80,-99.99,,,-99.99,,2013-04-30 11:00:00,
2013-04-30 07:21:00,51.0,45.0,-100.00,ENE,67,5.0,10.0,80,-99.99,,,-99.99,,2013-04-30 11:21:00,
2013-04-30 07:32:00,51.0,45.0,-100.00,ENE,67,5.0,10.0,80,-99.99,,,-99.99,,2013-04-30 11:32:00,
2013-04-30 07:42:00,51.0,45.0,-100.00,ENE,67,5.0,10.0,80,-99.99,,,-99.99,,2013-04-30 11:42:00,
2013-04-30 07:52:00,51.0,45.0,-100.00,ENE,67,5.0,10.0,80,-99.99,,,-99.99,,2013-04-30 11:52:00,
2013-04-30 08:00:00,52.0,46.0,-100.00,East,95,3.0,11.0,78,-99.99,,,-99.99,,2013-04-30 12:00:00,
2013-04-30 08:22:00,52.0,46.0,-100.00,East,95,3.0,11.0,78,-99.99,,,-99.99,,2013-04-30 12:22:00,
2013-04-30 08:31:00,52.0,46.0,-100.00,East,95,3.0,11.0,78,-99.99,,,-99.99,,2013-04-30 12:31:00,
2013-04-30 08:42:00,52.0,46.0,-100.00,East,95,3.0,11.0,78,-99.99,,,-99.99,,2013-04-30 12:42:00,
2013-04-30 08:51:00,52.0,46.0,-100.00,East,95,3.0,11.0,78,-99.99,,,-99.99,,2013-04-30 12:51:00,
2013-04-30 09:00:00,54.0,48.0,-100.00,ESE,112,6.0,12.0,79,-99.99,,,-99.99,,2013-04-30 13:00:00,
2013-04-30 09:21:00,54.0,48.0,-100.00,ESE,112,6.0,12.0,79,-99.99,,,-99.99,,2013-04-30 13:21:00,
2013-04-30 09:31:00,54.0,48.0,-100.00,ESE,112,6.0,12.0,79,-99.99,,,-99.99,,2013-04-30 13:31:00,
2013-04-30 09:41:00,54.0,48.0,-100.00,ESE,112,6.0,12.0,79,-99.99,,,-99.99,,2013-04-30 13:41:00,
2013-04-30 09:52:00,54.0,48.0,-100.00,ESE,112,6.0,12.0,79,-99.99,,,-99.99,,2013-04-30 13:52:00,
2013-04-30 10:00:00,56.0,48.0,-100.00,East,92,5.0,12.0,76,-99.99,,,-99.99,,2013-04-30 14:00:00,
2013-04-30 10:31:00,56.0,48.0,-100.00,East,92,5.0,12.0,76,-99.99,,,-99.99,,2013-04-30 14:31:00,
2013-04-30 10:41:00,56.0,48.0,-100.00,East,92,5.0,12.0,76,-99.99,,,-99.99,,2013-04-30 14:41:00,
2013-04-30 10:52:00,56.0,48.0,-100.00,East,92,5.0,12.0,76,-99.99,,,-99.99,,2013-04-30 14:52:00,
2013-04-30 11:00:00,56.0,48.0,-100.00,ENE,68,7.0,12.0,76,-99.99,,,-99.99,,2013-04-30 15:00:00,
2013-04-30 11:21:00,56.0,48.0,-100.00,ENE,68,7.0,12.0,76,-99.99,,,-99.99,,2013-04-30 15:21:00,
2013-04-30 11:32:00,56.0,48.0,-100.00,ENE,68,7.0,12.0,76,-99.99,,,-99.99,,2013-04-30 15:32:00,
2013-04-30 11:42:00,56.0,48.0,-100.00,ENE,68,7.0,12.0,76,-99.99,,,-99.99,,2013-04-30 15:42:00,
2013-04-30 11:53:00,56.0,48.0,-100.00,ENE,68,7.0,12.0,76,-99.99,,,-99.99,,2013-04-30 15:53:00,
2013-04-30 12:00:00,57.0,49.0,-100.00,SSW,192,5.0,14.0,76,-99.99,,,-99.99,,2013-04-30 16:00:00,
2013-04-30 12:23:00,57.0,49.0,-100.00,SSW,192,5.0,14.0,76,-99.99,,,-99.99,,2013-04-30 16:23:00,
2013-04-30 12:33:00,57.0,49.0,-100.00,SSW,192,5.0,14.0,76,-99.99,,,-99.99,,2013-04-30 16:33:00,
2013-04-30 12:42:00,57.0,49.0,-100.00,SSW,192,5.0,14.0,76,-99.99,,,-99.99,,2013-04-30 16:42:00,
2013-04-30 12:52:00,57.0,49.0,-100.00,SSW,192,5.0,14.0,76,-99.99,,,-99.99,,2013-04-30 16:52:00,
2013-04-30 13:00:00,57.0,47.0,-100.00,ENE,60,4.0,18.0,69,-99.99,,,-99.99,,2013-04-30 17:00:00,
2013-04-30 13:32:00,57.0,47.0,-100.00,ENE,60,4.0,18.0,69,-99.99,,,-99.99,,2013-04-30 17:32:00,
2013-04-30 13:42:00,57.0,47.0,-100.00,ENE,60,4.0,18.0,69,-99.99,,,-99.99,,2013-04-30 17:42:00,
2013-04-30 13:53:00,57.0,47.0,-100.00,ENE,60,4.0,18.0,69,-99.99,,,-99.99,,2013-04-30 17:53:00,
2013-04-30 14:00:00,57.0,43.0,-100.00,East,79,7.0,16.0,61,-99.99,,,-99.99,,2013-04-30 18:00:00,
2013-04-30 14:22:00,57.0,43.0,-100.00,East,79,7.0,16.0,61,-99.99,,,-99.99,,2013-04-30 18:22:00,
2013-04-30 14:32:00,57.0,43.0,-100.00,East,79,7.0,16.0,61,-99.99,,,-99.99,,2013-04-30 18:32:00,
2013-04-30 14:42:00,57.0,43.0,-100.00,East,79,7.0,16.0,61,-99.99,,,-99.99,,2013-04-30 18:42:00,
2013-04-30 14:52:00,57.0,43.0,-100.00,East,79,7.0,16.0,61,-99.99,,,-99.99,,2013-04-30 18:52:00,
2013-04-30 15:00:00,57.0,41.0,-100.00,East,96,6.0,18.0,56,-99.99,,,-99.99,,2013-04-30 19:00:00,
2013-04-30 15:32:00,57.0,41.0,-100.00,East,96,6.0,18.0,56,-99.99,,,-99.99,,2013-04-30 19:32:00,
2013-04-30 15:42:00,57.0,41.0,-100.00,East,96,6.0,18.0,56,-99.99,,,-99.99,,2013-04-30 19:42:00,
2013-04-30 15:52:00,57.0,41.0,-100.00,East,96,6.0,18.0,56,-99.99,,,-99.99,,2013-04-30 19:52:00,
2013-04-30 16:00:00,56.0,41.0,-100.00,ESE,120,11.0,18.0,55,-99.99,,,-99.99,,2013-04-30 20:00:00,
2013-04-30 16:22:00,56.0,41.0,-100.00,ESE,120,11.0,18.0,55,-99.99,,,-99.99,,2013-04-30 20:22:00,
2013-04-30 16:32:00,56.0,41.0,-100.00,ESE,120,11.0,18.0,55,-99.99,,,-99.99,,2013-04-30 20:32:00,
2013-04-30 16:42:00,56.0,41.0,-100.00,ESE,120,11.0,18.0,55,-99.99,,,-99.99,,2013-04-30 20:42:00,
2013-04-30 16:52:00,56.0,41.0,-100.00,ESE,120,11.0,18.0,55,-99.99,,,-99.99,,2013-04-30 20:52:00,
2013-04-30 17:00:00,57.0,39.0,-100.00,East,95,8.0,16.0,51,-99.99,,,-99.99,,2013-04-30 21:00:00,
2013-04-30 17:32:00,57.0,39.0,-100.00,East,95,8.0,16.0,51,-99.99,,,-99.99,,2013-04-30 21:32:00,
2013-04-30 17:42:00,57.0,39.0,-100.00,East,95,8.0,16.0,51,-99.99,,,-99.99,,2013-04-30 21:42:00,
2013-04-30 17:53:00,57.0,39.0,-100.00,East,95,8.0,16.0,51,-99.99,,,-99.99,,2013-04-30 21:53:00,
2013-04-30 18:00:00,54.0,39.0,-100.00,ESE,113,8.0,14.0,57,-99.99,,,-99.99,,2013-04-30 22:00:00,
2013-04-30 18:33:00,54.0,39.0,-100.00,ESE,113,8.0,14.0,57,-99.99,,,-99.99,,2013-04-30 22:33:00,
2013-04-30 18:42:00,54.0,39.0,-100.00,ESE,113,8.0,14.0,57,-99.99,,,-99.99,,2013-04-30 22:42:00,
2013-04-30 18:53:00,54.0,39.0,-100.00,ESE,113,8.0,14.0,57,-99.99,,,-99.99,,2013-04-30 22:53:00,
2013-04-30 19:00:00,54.0,38.0,-100.00,ESE,111,5.0,10.0,55,-99.99,,,-99.99,,2013-04-30 23:00:00,
2013-04-30 19:22:00,54.0,38.0,-100.00,ESE,111,5.0,10.0,55,-99.99,,,-99.99,,2013-04-30 23:22:00,
2013-04-30 19:32:00,54.0,38.0,-100.00,ESE,111,5.0,10.0,55,-99.99,,,-99.99,,2013-04-30 23:32:00,
2013-04-30 19:42:00,54.0,38.0,-100.00,ESE,111,5.0,10.0,55,-99.99,,,-99.99,,2013-04-30 23:42:00,
2013-04-30 19:52:00,54.0,38.0,-100.00,ESE,111,5.0,10.0,55,-99.99,,,-99.99,,2013-04-30 23:52:00,
2013-04-30 20:00:00,52.0,40.0,-100.00,East,98,0.0,11.0,63,-99.99,,,-99.99,,2013-05-01 00:00:00,
2013-04-30 20:22:00,52.0,40.0,-100.00,East,98,0.0,11.0,63,-99.99,,,-99.99,,2013-05-01 00:22:00,
2013-04-30 20:32:00,52.0,40.0,-100.00,East,98,0.0,11.0,63,-99.99,,,-99.99,,2013-05-01 00:32:00,
2013-04-30 20:42:00,52.0,40.0,-100.00,East,98,0.0,11.0,63,-99.99,,,-99.99,,2013-05-01 00:42:00,
2013-04-30 20:52:00,52.0,40.0,-100.00,East,98,0.0,11.0,63,-99.99,,,-99.99,,2013-05-01 00:52:00,
2013-04-30 21:00:00,51.0,40.0,-100.00,East,97,0.0,6.0,65,-99.99,,,-99.99,,2013-05-01 01:00:00,
2013-04-30 21:32:00,51.0,40.0,-100.00,East,97,0.0,6.0,65,-99.99,,,-99.99,,2013-05-01 01:32:00,
2013-04-30 21:42:00,51.0,40.0,-100.00,East,97,0.0,6.0,65,-99.99,,,-99.99,,2013-05-01 01:42:00,
2013-04-30 21:52:00,51.0,40.0,-100.00,East,97,0.0,6.0,65,-99.99,,,-99.99,,2013-05-01 01:52:00,
2013-04-30 22:00:00,50.0,41.0,-100.00,ESE,110,3.0,5.0,69,-99.99,,,-99.99,,2013-05-01 02:00:00,
2013-04-30 22:32:00,50.0,41.0,-100.00,ESE,110,3.0,5.0,69,-99.99,,,-99.99,,2013-05-01 02:32:00,
2013-04-30 22:42:00,50.0,41.0,-100.00,ESE,110,3.0,5.0,69,-99.99,,,-99.99,,2013-05-01 02:42:00,
2013-04-30 22:52:00,50.0,41.0,-100.00,ESE,110,3.0,5.0,69,-99.99,,,-99.99,,2013-05-01 02:52:00,
2013-04-30 23:00:00,49.0,41.0,-100.00,ESE,113,0.0,4.0,72,-99.99,,,-99.99,,2013-05-01 03:00:00,
2013-04-30 23:33:00,49.0,41.0,-100.00,ESE,113,0.0,4.0,72,-99.99,,,-99.99,,2013-05-01 03:33:00,
2013-04-30 23:43:00,49.0,41.0,-100.00,ESE,113,0.0,4.0,72,-99.99,,,-99.99,,2013-05-01 03:43:00,
2013-04-30 23:53:00,49.0,41.0,-100.00,ESE,113,0.0,4.0,72,-99.99,,,-99.99,,2013-05-01 03:53:00,